Location: *
(32.3300°N, 34.8500°E)
Time: 08:09:00
(UTC+00:00)

Cosmos 1954 Rocket - Pass Details

Date: 22 October 2019
Orbit: 753 x 781 km, 74.1° (Epoch: 18 November)

Event Time Altitude Azimuth Distance (km) Brightness Sun altitude
Exits shadow 02:17:40 41° 274° (W) 1,105 4.3 -20.0°
Maximum altitude 02:18:11 42° 290° (WNW) 1,084 4.3 -19.9°
Drops below altitude 10° 02:23:07 10° 1° (N) 2,296 6.5 -18.9°
Sets 02:25:37 0° 9° (N) 3,221 7.3 -18.3°
